Location: ??
(35.5052°N, 139.7262°E)
Time: 06:44:56
(UTC+00:00)

OAO 3 Rocket - Visible Passes

Search period start: 26 October 2021 00:00
Search period end: 05 November 2021 00:00
Orbit: 629 x 682 km, 35.0° (Epoch: 25 October)

Date Brightness Start Highest point End Pass type
(mag) Time Alt. Az. Time Alt. Az. Time Alt. Az.
26 Oct 3.4 08:47:24 10° WSW 08:52:06 61° SSE 08:55:20 20° E visible
26 Oct 4.9 10:30:43 10° W 10:33:08 30° W 10:33:08 30° W visible
27 Oct 3.1 09:15:43 10° W 09:20:29 81° S 09:22:10 41° E visible
27 Oct 6.0 10:59:10 10° W 10:59:58 15° W 10:59:58 15° W visible
28 Oct 3.0 09:44:08 10° W 09:48:56 86° S 09:49:00 85° SSE visible
29 Oct 3.2 08:29:08 10° W 08:33:52 82° S 08:38:02 14° E visible
29 Oct 4.3 10:12:35 10° W 10:15:50 43° W 10:15:50 43° W visible
30 Oct 3.1 08:57:34 10° W 09:02:19 85° S 09:04:53 28° E visible
30 Oct 5.5 10:41:04 10° W 10:42:41 21° W 10:42:41 21° W visible
31 Oct 3.2 09:26:00 10° W 09:30:44 72° SSW 09:31:47 52° SE visible
01 Nov 3.2 08:10:59 10° W 08:15:43 84° S 08:20:30 10° E visible
01 Nov 3.9 09:54:29 10° W 09:58:44 47° SSW 09:58:44 47° SSW visible
02 Nov 3.3 08:39:27 10° W 08:44:08 69° SSW 08:47:58 16° ESE visible
02 Nov 5.2 10:23:13 10° W 10:25:46 23° WSW 10:25:46 23° WSW visible
03 Nov 4.0 09:07:56 10° W 09:12:27 45° SSW 09:15:05 23° SE visible
03 Nov 6.2 10:52:47 10° WSW 10:52:54 10° WSW 10:52:54 10° WSW visible
04 Nov 4.9 09:36:43 10° W 09:40:38 26° SSW 09:42:21 21° S visible
